SBI1558 EDDL-EDDF

Flight info

Callsign SBI1558
Flight time N/A
Altitude 23000
Route COL4H COL T911 ROLIS ROLI5A
Aircraft A20N/M-SDE2E3FGHIJ1RWXY/LB1

Departure

Time 2026-05-04 20:28
Airport Düsseldorf Airport (EDDL)

Arrival

Time N/A
Airport Frankfurt Main Airport (EDDF)
Time Latitude Longitude Altitude Speed Heading
2026-05-04 20:06 51.28464 6.77352 133 ft 0 kts 142°
2026-05-04 20:15 51.28475 6.77338 133 ft 2 kts 142°
2026-05-04 20:15 51.28486 6.77323 133 ft 2 kts 142°
2026-05-04 20:15 51.28498 6.77309 134 ft 2 kts 128°
2026-05-04 20:15 51.28505 6.77288 134 ft 2 kts 97°
2026-05-04 20:16 51.28505 6.77265 134 ft 0 kts 57°
2026-05-04 20:16 51.28505 6.77264 134 ft 0 kts 52°
2026-05-04 20:20 51.28507 6.77268 134 ft 2 kts 52°
2026-05-04 20:20 51.28527 6.77315 134 ft 9 kts 57°
2026-05-04 20:20 51.28575 6.77432 133 ft 16 kts 52°
2026-05-04 20:20 51.28655 6.77593 133 ft 20 kts 57°
2026-05-04 20:21 51.28675 6.77754 131 ft 13 kts 52°
2026-05-04 20:21 51.28740 6.77859 132 ft 13 kts 21°
2026-05-04 20:21 51.28848 6.77757 137 ft 8 kts 322°
2026-05-04 20:22 51.28890 6.77711 139 ft 6 kts 333°
2026-05-04 20:22 51.28919 6.77711 141 ft 3 kts
2026-05-04 20:22 51.28935 6.77722 141 ft 3 kts 30°
2026-05-04 20:22 51.28952 6.77750 141 ft 5 kts 45°
2026-05-04 20:23 51.28979 6.77799 142 ft 6 kts 50°
2026-05-04 20:23 51.29008 6.77856 144 ft 7 kts 53°
2026-05-04 20:23 51.29040 6.77924 145 ft 10 kts 52°
2026-05-04 20:23 51.29100 6.78051 145 ft 19 kts 53°
2026-05-04 20:24 51.29195 6.78255 146 ft 27 kts 53°
2026-05-04 20:24 51.29320 6.78520 146 ft 29 kts 48°
2026-05-04 20:24 51.29375 6.78570 146 ft 0 kts
2026-05-04 20:24 51.29379 6.78571 146 ft 0 kts
2026-05-04 20:26 51.29411 6.78571 146 ft 10 kts 358°
2026-05-04 20:26 51.29503 6.78534 150 ft 16 kts 313°
2026-05-04 20:26 51.29462 6.78350 147 ft 23 kts 232°
2026-05-04 20:26 51.29428 6.78279 147 ft 0 kts 232°
2026-05-04 20:27 51.29427 6.78278 140 ft 3 kts 232°
2026-05-04 20:28 51.29240 6.77893 147 ft 88 kts 234°
2026-05-04 20:28 51.28716 6.76771 179 ft 155 kts 232°
2026-05-04 20:28 51.28048 6.75311 804 ft 174 kts 234°
2026-05-04 20:28 51.27322 6.73670 1630 ft 187 kts 233°
2026-05-04 20:29 51.26538 6.71932 2439 ft 202 kts 233°
2026-05-04 20:29 51.25682 6.70023 3141 ft 221 kts 233°
2026-05-04 20:29 51.24716 6.67971 3828 ft 242 kts 231°
2026-05-04 20:30 51.18627 6.63893 7460 ft 267 kts 175°
2026-05-04 20:30 51.16765 6.64220 8451 ft 271 kts 171°
2026-05-04 20:31 51.15023 6.65284 9417 ft 277 kts 147°
2026-05-04 20:31 51.13676 6.67516 10305 ft 288 kts 123°